720  
ASUS43 KDTX 221001  
RWRMI  
MICHIGAN HOURLY REGIONAL WEATHER ROUNDUP  
NATIONAL WEATHER SERVICE DETROIT/PONTIAC MI  
600 AM EDT TUE MAY 22 2018  
 
NOTE: "FAIR" INDICATES FEW OR NO CLOUDS BELOW 12,000 FEET WITH NO  
SIGNIFICANT WEATHER AND/OR TO VISIBILITY
.  
 
MIZ047>049-052>055-059>063-066>070-074>076-081>083-221100-  
SOUTHEAST LOWER MICHIGAN  
 
CITY SKY/WX TMP DP RH WIND PRES REMARKS
 
ADRIAN CLOUDY 53 53 100 CALM 29.98F FOG  
ALMA CLOUDY 51 51 100 E10 30.00S FOG  
ANN ARBOR FOG 54 54 100 CALM 29.97S VSB 1  
BAD AXE CLOUDY 51 51 100 CALM 29.99F FOG  
CARO CLOUDY 50 49 95 CALM 29.99S FOG  
DETROIT CITY CLOUDY 56 53 90 CALM 29.97S  
DETROIT CLOUDY 56 52 86 CALM 29.98R FOG  
FLINT CLOUDY 52 50 93 N3 29.99S  
GROSSE ILE CLOUDY 55 54 97 CALM 29.96S FOG  
HILLSDALE FOG 55 54 94 S5 29.98S VSB 1/4  
HOWELL CLOUDY 52 52 97 CALM 29.98S FOG  
 
CITY SKY/WX TMP DP RH WIND PRES REMARKS
 
JACKSON CLOUDY 51 51 100 CALM 29.98R FOG  
LAMBERTVILLE CLOUDY 59 56 90 CALM 29.98S FOG  
LANSING CLOUDY 53 51 93 CALM 29.99S  
LAPEER CLOUDY 50 50 100 CALM 29.99S FOG  
MASON CLOUDY 53 52 95 CALM 29.99R FOG  
MONROE CLOUDY 57 55 94 CALM 29.97F FOG  
MT. CLEMENS CLOUDY 55 55 100 CALM 29.95F  
PONTIAC CLOUDY 54 54 100 S3 29.96F  
PORT HOPE N/A 49 48 97 CALM 29.98F  
PORT HURON CLOUDY 54 52 94 N3 29.98S FOG  
TRI CITIES CLOUDY 52 51 97 CALM 30.00S FOG  
MIDLAND CLOUDY 51 51 100 CALM 29.99S  
TROY CLOUDY 57 53 88 CALM 30.00R  
SAGINAW HB CLOUDY 50 50 100 CALM 29.99S FOG  

 
MIZ043>046-050>051-056>058-064>065-071>073-077>080-221100-  
SOUTHWEST LOWER MICHIGAN  
 
CITY SKY/WX TMP DP RH WIND PRES REMARKS
 
BATTLE CREEK LGT RAIN 56 54 93 CALM 29.98F FOG  
BENTON HARBOR HVY RAIN 58 57 97 W3 29.97R VSB 3/4  
BIG RAPIDS CLOUDY 51 50 97 CALM 29.98F FOG  
COLDWATER CLOUDY 56 55 99 CALM 29.98S FOG  
FREMONT CLOUDY 51 51 100 CALM 29.98S FOG  
GRAND RAPIDS CLOUDY 54 54 100 NE3 29.97S FOG  
IONIA CLOUDY 52 52 100 NE5 29.98S FOG  
KALAMAZOO CLOUDY 58 55 90 CALM 29.97F FOG  
LUDINGTON CLOUDY 50 50 100 CALM 29.99S FOG  
MARSHALL CLOUDY 54 52 95 CALM 29.98R FOG  
MOUNT PLEASANT CLOUDY 52 52 100 CALM 29.99S FOG  
MUSKEGON CLOUDY 53 51 93 E3 29.98F FOG  
SOUTH HAVEN CLOUDY 60 58 94 CALM 29.97S FOG  

 
MIZ016>042-221100-  
NORTHERN LOWER MICHIGAN  
 
CITY SKY/WX TMP DP RH WIND PRES REMARKS
 
ALPENA CLOUDY 52 41 66 CALM 30.03S  
BEAVER ISLAND FAIR 43 42 95 CALM 30.03S  
BELLAIRE CLOUDY 52 49 87 CALM 30.02F  
CADILLAC CLOUDY 49 48 99 NE3 29.99F  
FRANKFORT CLOUDY 52 52 100 CALM 30.00F  
GAYLORD CLOUDY 52 46 80 CALM 30.02F  
HARBOR SPRINGS CLOUDY 52 47 82 CALM 30.01F  
HOUGHTON LAKE CLOUDY 50 48 93 NE3 30.01F  
MANISTEE CLOUDY 51 50 96 CALM 30.00S  
OSCODA LGT RAIN 48 46 93 CALM 30.00S  
PELLSTON CLOUDY 51 46 83 CALM 30.02F  
ROGERS CITY CLOUDY 47 43 85 CALM 30.03F  
TRAVERSE CITY CLOUDY 50 47 89 CALM 30.00F  

 
MIZ007>008-015-221100-  
EASTERN UPPER MICHIGAN  
 
CITY SKY/WX TMP DP RH WIND PRES REMARKS
 
KINROSS FAIR 48 39 71 CALM 30.03F  
MACKINAC ISLAN FAIR 49 40 70 NE6 30.02S  
NEWBERRY FAIR 41 40 97 CALM 30.02F  
S. S. MARIE FAIR 49 39 68 CALM 30.02F  
MUNISING N/A 52 46 80 CALM 30.01S  

 
MIZ004>006-011>014-085-221100-  
CENTRAL UPPER MICHIGAN  
 
CITY SKY/WX TMP DP RH WIND PRES REMARKS
 
MANISTIQUE FAIR 41 39 94 CALM 30.02F  
ESCANABA FAIR 49 45 86 CALM 30.02F  
SAWYER-GWINN CLOUDY 50 42 74 SW6 30.02S  

 
MIZ001>003-009>011-084-221100-  
WESTERN UPPER MICHIGAN  
 
CITY SKY/WX TMP DP RH WIND PRES REMARKS
 
IRON MOUNTAIN MOCLDY 51 46 83 CALM 30.00F  
HOUGHTON FAIR 51 42 71 NW12 29.98S  
COPPER HARBOR N/A 45 38 76 CALM 29.98S  
IRONWOOD CLOUDY 50 48 93 CALM 30.03S  

 
 
ABBREVIATIONS USED IN REMARKS  
TC - TEMPERATURE IN CELSIUS  
WCI - WIND CHILL INDEX  
HX - HEAT INDEX  
VSB - VISIBILITY  
 
 
 
CLICK HERE TO GO TO PREVIOUS BULLETINS.

The Nexlab MI Page Main Text Page